This is the latest recevied weather packets stored in our database for station/object KA9CBS. If no packets are shown the sender has not sent any weather packets the latest 10 day(s).
| Time | Temp. | Humidity | Pressure | Rain* | Wind** | Luminosity | Snow |
|---|---|---|---|---|---|---|---|
| 1778118927 | 9.44° C | 79% | 1017.3 hPa | 0 mm | - | 0 W/m² | - |
| 1778118624 | 10° C | 79% | 1017.3 hPa | 0 mm | - | 0 W/m² | - |
| 1778118320 | 10° C | 78% | 1017.4 hPa | 0 mm | - | 0 W/m² | - |
| 1778118016 | 10° C | 79% | 1017.5 hPa | 0 mm | - | 0 W/m² | - |
| 1778117713 | 10° C | 77% | 1017.3 hPa | 0 mm | - | 0 W/m² | - |
| 1778117410 | 10° C | 76% | 1017.4 hPa | 0 mm | - | 0 W/m² | - |
| 1778117107 | 10.56° C | 74% | 1017.5 hPa | 0 mm | - | 0 W/m² | - |
| 1778116803 | 11.11° C | 73% | 1017.4 hPa | 0 mm | - | 0 W/m² | - |
| 1778116501 | 11.67° C | 70% | 1017.1 hPa | 0 mm | - | 0 W/m² | - |
| 1778116196 | 12.22° C | 65% | 1017.2 hPa | 0 mm | - | 0 W/m² | - |
| 1778115891 | 12.78° C | 63% | 1017.2 hPa | 0 mm | - | 0 W/m² | - |
| 1778115588 | 12.78° C | 62% | 1017.1 hPa | 0 mm | - | 0 W/m² | - |
| 1778115285 | 12.78° C | 63% | 1016.9 hPa | 0 mm | - | 0 W/m² | - |
| 1778114982 | 12.78° C | 63% | 1016.9 hPa | 0 mm | - | 2 W/m² | - |
| 1778114678 | 13.33° C | 63% | 1017.1 hPa | 0 mm | - | 5 W/m² | - |
| 1778114376 | 13.33° C | 62% | 1017 hPa | 0 mm | - | 8 W/m² | - |
| 1778114071 | 13.33° C | 61% | 1017 hPa | 0 mm | - | 11 W/m² | - |
| 1778113766 | 13.89° C | 60% | 1016.8 hPa | 0 mm | - | 13 W/m² | - |
| 1778113463 | 13.89° C | 60% | 1016.8 hPa | 0 mm | - | 16 W/m² | - |
| 1778113160 | 13.89° C | 58% | 1016.8 hPa | 0 mm | - | 19 W/m² | - |
| 1778112857 | 13.89° C | 57% | 1016.7 hPa | 0 mm | - | 22 W/m² | - |
| 1778112554 | 14.44° C | 57% | 1016.5 hPa | 0 mm | - | 25 W/m² | - |
| 1778112249 | 14.44° C | 57% | 1016.5 hPa | 0 mm | - | 26 W/m² | - |
| 1778111945 | 14.44° C | 57% | 1016.5 hPa | 0 mm | - | 28 W/m² | - |
| 1778111643 | 14.44° C | 56% | 1016.5 hPa | 0 mm | - | 30 W/m² | - |
* Rain latest hour (hover to see other rain measurements)
** Current wind speed in m/s (hover to see current wind gust speed)